Tracking 19644 objects as of 24-Apr-2019
HD Live streaming from Space Station
objects crossing your sky now

MIDAS 5 DEB

Track MIDAS 5 DEB now!
10-day predictions


NORAD ID: 273
Int'l Code: 1962-010C
Perigee: 2,786.8 km
Apogee: 3,388.2 km
Inclination: 86.7 °
Period: 152.6 minutes
Semi major axis: 9458 km
RCS: 0.407 m2 (medium)
Launch date: April 9, 1962
Source: United States (US)
Launch site: AIR FORCE WESTERN TEST RANGE (AFWTR)

Note: This is SATELLITE DEBRIS
aabbcc
Your satellite tracking list
Your tracking list is empty




NASA's NSSDC Master Catalog

Two Line Element Set (TLE):
1   273U 62010C   19113.00788895 -.00000003  00000-0 -12389-2 0  9991
2   273  86.6545 318.9852 0317934 209.0850 149.2009  9.43781649965179
Source of the keplerian elements: AFSPC